Glenwood, MN

1:09 AM CDT on September 20, 2017 (GMT -0500)
Glenwood Municipal

Weather History for KGHW - November, 2013

Change the Weather History Date:

Sunday, November 17, 2013

  Actual Average Record
Temperature  
Mean Temperature 34 °F -  
Max Temperature 42 °F 38 °F 71 °F (1953)
Min Temperature 26 °F 22 °F -7 °F (1959)
Degree Days  
Heating Degree Days 31    
Moisture  
Dew Point 32 °F    
Average Humidity 92    
Maximum Humidity 100    
Minimum Humidity 80    
Precipitation  
Precipitation 0.00 in - - ()
Sea Level Pressure  
Sea Level Pressure 29.53 in    
Wind  
Wind Speed 17 mph (WNW)    
Max Wind Speed 32 mph    
Max Gust Speed 45 mph    
Visibility 7 miles    
Events Fog    
Averages and records for this station are not official NWS values.
T = Trace of Precipitation, MM = Missing Value Source: NWS Daily Summary

Daily Weather History Graph

Daily Weather History Graph

Search for Another Location

Airport or City:

Trip Planner

Search our weather history database for the weather conditions in past years. The results will help you decide how hot, cold, wet, or windy it might be!

Date:

Astronomy

Nov. 17, 2013 Rise Set
Actual Time 7:23 AM CST 4:48 PM CST
Civil Twilight 6:51 AM CST 5:20 PM CST
Nautical Twilight 6:15 AM CST 5:56 PM CST
Astronomical Twilight 5:40 AM CST 6:32 PM CST
Moon 5:06 PM CST (11/17) 7:18 AM CST (11/17)
Length of Visible Light 10h 29m
Length of Day
9h 24m
Full, 100% of the Moon is Illuminated
Nov 17
Full
Nov 25
Last Quarter
Dec 2
New
Dec 9
First Quarter
Dec 17
Full

Hourly Weather History & Observations

Time (CST) Temp. Windchill Dew Point Humidity Pressure Visibility Wind Dir Wind Speed Gust Speed Precip Events Conditions
12:13 AM 42.8 °F 37.0 °F 42.8 °F 100% 29.29 in 0.2 mi WSW 10.4 mph - N/A   Overcast
12:33 AM 42.8 °F 37.0 °F 42.8 °F 100% 29.29 in 0.2 mi WSW 10.4 mph - N/A   Overcast
12:54 AM 42.8 °F 36.2 °F 42.8 °F 100% 29.29 in 0.2 mi WSW 12.7 mph - N/A   Overcast
1:13 AM 41.0 °F 34.7 °F 41.0 °F 100% 29.29 in 0.2 mi West 10.4 mph - N/A   Light Drizzle
1:33 AM 41.0 °F 34.7 °F 41.0 °F 100% 29.29 in 0.5 mi West 10.4 mph - N/A Fog Fog
1:54 AM 41.0 °F 34.3 °F 39.2 °F 93% 29.29 in 0.5 mi West 11.5 mph - N/A Fog Fog
2:13 AM 39.2 °F 31.2 °F 39.2 °F 100% 29.30 in 0.5 mi West 13.8 mph - N/A Fog Fog
2:33 AM 39.2 °F 32.0 °F 39.2 °F 100% 29.30 in 0.5 mi West 11.5 mph - N/A Fog Fog
2:54 AM 39.2 °F 32.5 °F 39.2 °F 100% 29.30 in 0.5 mi West 10.4 mph - N/A Fog Fog
3:13 AM 39.2 °F 30.8 °F 39.2 °F 100% 29.31 in 0.5 mi West 15.0 mph - N/A   Overcast
3:33 AM 39.2 °F 32.0 °F 37.4 °F 93% 29.29 in 2.0 mi WNW 11.5 mph - N/A   Overcast
3:54 AM 37.4 °F 28.9 °F 37.4 °F 100% 29.30 in 3.0 mi West 13.8 mph - N/A   Overcast
4:13 AM 37.4 °F 28.5 °F 37.4 °F 100% 29.32 in 7.0 mi West 15.0 mph 23.0 mph N/A   Overcast
4:34 AM 37.4 °F 27.2 °F 37.4 °F 100% 29.32 in 7.0 mi WNW 19.6 mph 23.0 mph N/A   Overcast
4:53 AM 37.4 °F 28.2 °F 35.6 °F 93% 29.34 in 7.0 mi WNW 16.1 mph 26.5 mph N/A   Overcast
5:13 AM 37.4 °F 28.2 °F 35.6 °F 93% 29.34 in 7.0 mi WNW 16.1 mph - N/A   Overcast
5:34 AM 35.6 °F 27.5 °F 35.6 °F 100% 29.36 in 7.0 mi WNW 11.5 mph 19.6 mph N/A   Overcast
5:53 AM 35.6 °F 27.1 °F 35.6 °F 100% 29.36 in 7.0 mi WNW 12.7 mph - N/A   Overcast
6:14 AM 35.6 °F 27.5 °F 35.6 °F 100% 29.37 in 5.0 mi WNW 11.5 mph - N/A   Overcast
6:33 AM 35.6 °F 27.1 °F 35.6 °F 100% 29.37 in 5.0 mi WNW 12.7 mph - N/A   Overcast
6:53 AM 37.4 °F 29.3 °F 35.6 °F 93% 29.37 in 5.0 mi WNW 12.7 mph 16.1 mph N/A   Overcast
7:13 AM 37.4 °F 28.9 °F 35.6 °F 93% 29.38 in 5.0 mi WNW 13.8 mph 19.6 mph N/A   Overcast
7:33 AM 37.4 °F 29.3 °F 35.6 °F 93% 29.38 in 5.0 mi WNW 12.7 mph - N/A   Overcast
7:53 AM 37.4 °F 28.9 °F 35.6 °F 93% 29.39 in 5.0 mi WNW 13.8 mph - N/A   Overcast
8:13 AM 37.4 °F 29.8 °F 37.4 °F 100% 29.40 in 4.0 mi WNW 11.5 mph 19.6 mph N/A   Overcast
8:34 AM 37.4 °F 30.8 °F 37.4 °F 100% 29.40 in 4.0 mi WNW 9.2 mph - N/A   Overcast
8:53 AM 37.4 °F 28.5 °F 37.4 °F 100% 29.39 in 5.0 mi NW 15.0 mph - N/A   Overcast
9:13 AM 37.4 °F 28.5 °F 35.6 °F 93% 29.41 in 5.0 mi NW 15.0 mph 24.2 mph N/A   Overcast
9:34 AM 37.4 °F 27.8 °F 35.6 °F 93% 29.43 in 7.0 mi NW 17.3 mph 24.2 mph N/A   Overcast
9:53 AM 37.4 °F 26.9 °F 35.6 °F 93% 29.44 in 10.0 mi WNW 20.7 mph 28.8 mph N/A   Overcast
10:13 AM 37.4 °F 27.5 °F 35.6 °F 93% 29.45 in 10.0 mi NW 18.4 mph 23.0 mph N/A   Overcast
10:33 AM 37.4 °F 27.8 °F 35.6 °F 93% 29.46 in 10.0 mi NW 17.3 mph 25.3 mph N/A   Overcast
10:53 AM 37.4 °F 26.4 °F 35.6 °F 93% 29.47 in 10.0 mi WNW 23.0 mph 26.5 mph N/A   Overcast
11:14 AM 37.4 °F 26.9 °F 35.6 °F 93% 29.47 in 10.0 mi WNW 20.7 mph 25.3 mph N/A   Overcast
11:33 AM 37.4 °F 27.5 °F 35.6 °F 93% 29.47 in 10.0 mi WNW 18.4 mph 25.3 mph N/A   Overcast
11:53 AM 37.4 °F 27.5 °F 35.6 °F 93% 29.48 in 7.0 mi WNW 18.4 mph 29.9 mph N/A   Overcast
12:13 PM 37.4 °F 26.9 °F 35.6 °F 93% 29.49 in 7.0 mi WNW 20.7 mph 26.5 mph N/A   Overcast
12:33 PM 35.6 °F 24.2 °F 33.8 °F 93% 29.50 in 10.0 mi WNW 21.9 mph - N/A   Overcast
12:54 PM 35.6 °F 24.2 °F 33.8 °F 93% 29.51 in 7.0 mi WNW 21.9 mph 28.8 mph N/A   Overcast
1:13 PM 33.8 °F 21.0 °F 32.0 °F 93% 29.52 in 10.0 mi WNW 25.3 mph 29.9 mph N/A   Overcast
1:33 PM 33.8 °F 22.8 °F 32.0 °F 93% 29.53 in 7.0 mi WNW 18.4 mph 26.5 mph N/A   Overcast
1:53 PM 33.8 °F 20.8 °F 32.0 °F 93% 29.54 in 10.0 mi WNW 26.5 mph 34.5 mph N/A   Overcast
2:13 PM 33.8 °F 22.2 °F 32.0 °F 93% 29.55 in 10.0 mi WNW 20.7 mph 27.6 mph N/A   Overcast
2:34 PM 33.8 °F 21.3 °F 32.0 °F 93% 29.56 in 10.0 mi WNW 24.2 mph 29.9 mph N/A   Overcast
2:53 PM 32.0 °F 18.6 °F 30.2 °F 93% 29.58 in 10.0 mi WNW 25.3 mph 33.4 mph N/A   Overcast
3:14 PM 32.0 °F 18.1 °F 30.2 °F 93% 29.59 in 10.0 mi WNW 27.6 mph 34.5 mph N/A   Overcast
3:33 PM 30.2 °F 16.5 °F 30.2 °F 100% 29.61 in 10.0 mi WNW 24.2 mph 36.8 mph N/A   Overcast
3:53 PM 30.2 °F 15.9 °F 28.4 °F 93% 29.62 in 10.0 mi WNW 26.5 mph 31.1 mph N/A   Overcast
4:14 PM 30.2 °F 15.4 °F 28.4 °F 93% 29.63 in 10.0 mi WNW 28.8 mph 32.2 mph N/A   Overcast
4:33 PM 30.2 °F 15.7 °F 28.4 °F 93% 29.65 in 10.0 mi WNW 27.6 mph 34.5 mph N/A   Overcast
4:53 PM 30.2 °F 15.4 °F 26.6 °F 86% 29.66 in 10.0 mi WNW 28.8 mph 39.1 mph N/A   Overcast
5:13 PM 30.2 °F 15.7 °F 26.6 °F 86% 29.68 in 10.0 mi WNW 27.6 mph 44.9 mph N/A   Overcast
5:33 PM 30.2 °F 15.2 °F 26.6 °F 86% 29.69 in 10.0 mi WNW 29.9 mph 38.0 mph N/A   Overcast
5:53 PM 30.2 °F 15.7 °F 26.6 °F 86% 29.71 in 10.0 mi WNW 27.6 mph 35.7 mph N/A   Overcast
6:13 PM 30.2 °F 14.7 °F 24.8 °F 80% 29.72 in 10.0 mi WNW 32.2 mph 40.3 mph N/A   Overcast
6:33 PM 30.2 °F 14.9 °F 24.8 °F 80% 29.73 in 10.0 mi WNW 31.1 mph - N/A   Overcast
6:53 PM 28.4 °F 13.0 °F 24.8 °F 86% 29.75 in 10.0 mi WNW 28.8 mph 40.3 mph N/A   Overcast
7:13 PM 28.4 °F 13.0 °F 24.8 °F 86% 29.75 in 10.0 mi WNW 28.8 mph 36.8 mph N/A   Overcast
7:34 PM 28.4 °F 13.0 °F 24.8 °F 86% 29.76 in 10.0 mi WNW 28.8 mph 41.4 mph N/A   Overcast
7:53 PM 28.4 °F 14.4 °F 24.8 °F 86% 29.77 in 10.0 mi WNW 23.0 mph 34.5 mph N/A   Overcast
8:13 PM 28.4 °F 13.8 °F 24.8 °F 86% 29.78 in 10.0 mi WNW 25.3 mph 38.0 mph N/A   Overcast
8:33 PM 28.4 °F 13.3 °F 24.8 °F 86% 29.79 in 10.0 mi WNW 27.6 mph 34.5 mph N/A   Overcast
8:53 PM 28.4 °F 12.7 °F 23.0 °F 80% 29.80 in 10.0 mi WNW 29.9 mph 38.0 mph N/A   Overcast
9:13 PM 28.4 °F 14.1 °F 23.0 °F 80% 29.81 in 10.0 mi WNW 24.2 mph 32.2 mph N/A   Overcast
9:33 PM 28.4 °F 14.7 °F 23.0 °F 80% 29.82 in 10.0 mi WNW 21.9 mph 38.0 mph N/A   Overcast
9:53 PM 28.4 °F 13.3 °F 23.0 °F 80% 29.83 in 10.0 mi WNW 27.6 mph 36.8 mph N/A   Overcast
10:13 PM 28.4 °F 14.1 °F 24.8 °F 86% 29.84 in 10.0 mi WNW 24.2 mph - N/A   Overcast
10:33 PM 28.4 °F 13.8 °F 24.8 °F 86% 29.84 in 10.0 mi WNW 25.3 mph 31.1 mph N/A   Overcast
10:53 PM 26.6 °F 10.8 °F 21.2 °F 80% 29.85 in 10.0 mi WNW 27.6 mph 33.4 mph N/A   Overcast
11:13 PM 26.6 °F 10.8 °F 21.2 °F 80% 29.85 in 10.0 mi NW 27.6 mph 35.7 mph N/A   Overcast
11:34 PM 26.6 °F 10.8 °F 21.2 °F 80% 29.86 in 10.0 mi WNW 27.6 mph 38.0 mph N/A   Overcast
11:53 PM 26.6 °F 10.3 °F 21.2 °F 80% 29.87 in 10.0 mi WNW 29.9 mph 36.8 mph N/A   Overcast